Skip Page Navigation
NASA JPL Caltech
NASA Logo - Jet Propulsion Laboratory + View the NASA Portal
+ Center for Near-Earth Object Studies
JPL Home Earth Solar System Stars & Galaxies Technology
JPL Solar System Dynamics
BODIES ORBITS EPHEMERIDES TOOLS PHYSICAL DATA DISCOVERY FAQ SITE MAP
IMPORTANT: The SSD Announcement email list is now available. Major changes are coming in the near future, including possible hostname and/or URL changes. To be notified of such changes, subscribe to this email list.

Please visit this page for more details.


JPL Small-Body Database Browser
Search: [ help ]  
(2012 VG5)
Classification: Amor [NEO]          SPK-ID: 3616347
Ephemeris | Orbit Diagram | Orbital Elements | Mission Design | Physical Parameters | Close-Approach Data ]

[ hide orbit diagram ]

For accurate long-term ephemerides, please instead use our Horizons system.This orbit viewer was implemented using two-body methods, and hence should not be used for determining accurate long-term trajectories (over several years or decades) or planetary encounter circumstances.


[ revert to old Java-based viewer ]

Orbital Elements at Epoch 2456236.5 (2012-Nov-05.0) TDB
Reference: JPL 11 (heliocentric ecliptic J2000)
 Element Value Uncertainty (1-sigma)   Units 
e .3452070595912366 0.00098193  
a 1.592704665247014 0.0025648 au
q 1.042891770959847 0.00011546 au
i 16.01814979111079 0.030207 deg
node 223.6439601102898 0.0018455 deg
peri 186.4234867593305 0.0075921 deg
M 356.2051566888343 0.013216 deg
tp 2456244.239139107371
(2012-Nov-12.73913911)
0.0082696 TDB
period 734.1778962140435
2.01
1.7734
0.004855
d
yr
n .4903443727418416 0.0011844 deg/d
Q 2.14251755953418 0.0034501 au
  Orbit Determination Parameters
   # obs. used (total)      31  
   data-arc span      11 days  
   first obs. used      2012-11-03  
   last obs. used      2012-11-14  
   planetary ephem.      DE431  
   SB-pert. ephem.      SB431-N16  
   condition code      8  
   norm. resid. RMS      .58768  
   source      ORB  
   producer      Otto Matic  
   solution date      2017-Apr-06 08:48:14  

Additional Information
 Earth MOID = .0532332 au 
 Jupiter MOID = 3.26148 au 
 T_jup = 4.265 
[ show covariance matrix ]

Ephemeris | Orbit Diagram | Orbital Elements | Mission Design | Physical Parameters | Close-Approach Data ]

Physical Parameter Table
Parameter Symbol Value Units Sigma Reference Notes
absolute magnitude H 24.8   n/a MPO244111  

[ show close-approach data ]
Ephemeris | Orbit Diagram | Orbital Elements | Mission Design | Physical Parameters | Close-Approach Data ]
ABOUT SSD CREDITS/AWARDS PRIVACY/COPYRIGHT GLOSSARY LINKS
FirstGov
(server date/time)  
NASA Home Page
Site Manager:   Ryan S. Park
Webmaster  Alan B. Chamberlin